Find Starlink 30854

NORAD ID: 58244 Int'l Des: 2023-171 Owner: SPXS Country: US Constellation: starlink operational
LEOCIRCULAR

当前视图

正在加载3D地球...

About Starlink 30854

Starlink 30854 (NORAD 58244) is a starlink constellation satellite (v2 mini) launched Nov 8, 2023 by SPXS of US. It operates in LEO, CIRCULAR orbit with a mass of 730.00 kg.

关于 Starlink 30854

正在加载描述...

即将过境

Passes for default location (London). Set your location on the main map for personalized predictions.

高度历史

Loading altitude history...

两行轨道根数

1 58244U 23171Q 26171.41409240 .00000836 00000-0 39901-4 0 9991
2 58244 43.0045 65.2025 0001360 260.0292 100.0406 15.27580501145445
Epoch: Jun 20, 2026 • Age: 29 hours

当前状态

高度 488.8 km
速度 7.62 km/s
星下点 -25.73°S, 132.32°E
发射日期 Nov 8, 2023
运行时间 2.6 years
类型 internet

技术详情

分类 Payload
质量 730.00 kg
干质量 700.00 kg
总质量 730.00 kg
长度 0.30 m
直径 4.10 m
跨度 29.00 m
形状 Box + pan
制造商 SPXS
平台类型 Starlink V2M
阶段状态 In Orbit
所有者/国家 SPXS/US

Most Searched